Location: Cossonay
(46.5833°N, 6.4167°E)
Time: 21:08:17
(UTC+00:00)

CBERS-1 - Pass Details

Date: 04 October 2020
Orbit: 770 x 777 km, 98.6° (Epoch: 22 October)

Event Time Altitude Azimuth Distance (km) Brightness Sun altitude
Rises 03:27:17 0° 1° (N) 3,259 7.5 -22.9°
Reaches altitude 10° 03:30:13 10° 344° (NNW) 2,329 6.5 -22.4°
Enters shadow 03:32:24 17° 320° (NW) 1,875 5.8 -22.0°
